Погода в Тхотю

Вьетнам     9°20′16″N   103°29′08″E
темп.,
°C
ветер,
м/с
пор.,
м/с
влажн.,
%
обл.,
%
осадки,
мм/ч
давл.,
гПа
погр.,
м
19 сентября, вс
вс1901:00+29з4472100 0.1 1010720
04:00+28зюз4474100 1.1 1008630
07:00+28зюз4477100 5.9 1009319
10:00+28з5674100 1.8 1011573
13:00+29з6670100 1.9 1009976
16:00+29з667050 0.1 10071026
19:00+29з5572100 0.1 1009946
22:00+29з4474100 1.1 1011563
20 сентября, пн
пн2001:00+28зсз3475100 5.9 1009354
04:00+27ссз4475100 2.3 1008550
07:00+27сз3380100 2.4 1010331
10:00+27зсз448399 1.8 1011264
13:00+26з6784100 4.3 1009494
16:00+27з6779100 0.8 1007626
19:00+27з6777100 0.8 1009815
22:00+28з677293 0.0 1010934
21 сентября, вт
вт2101:00+28зюз7874100 0.3 1008893
04:00+28з8873100 0.1 10071131
07:00+28з7778100 3.4 1009714
10:00+27з7781100 9.7 1010539
13:00+27зюз5681100 17.3 1008429
16:00+27з6776100 2.1 1006644
19:00+28зюз677797 4.6 1008709
22:00+28зюз5776100 2.1 1009586
22 сентября, ср
ср2201:00+27зюз7879100 4.8 1007714
04:00+26з8888100 5.3 1007627
07:00+26з7988100 14.3 1008646
10:00+27юз6783100 3.1 1010678
13:00+27юз8983100 5.7 1008749
16:00+27зюз71080100 0.1 1007685
19:00+28з5774100 0.1 1008969
22:00+27зюз6780100 3.2 1010610
23 сентября, чт
чт2301:00+28зюз7880100 9.3 1008743
04:00+27зюз5681100 5.3 1007474
07:00+26зюз6987100 10.0 1009653
10:00+28зюз897681 3.4 1010999
13:00+28зюз8977100 6.1 1008970
16:00+28з7875100 3.1 1007932
19:00+28зсз4574100 3.1 1009722
22:00+28ссз2273100 0.0 1010496